Location: ????????
(38.4362°N, 22.8767°E)
Time: 18:15:10
(UTC+00:00)

ACS3 Solar Sail - Pass Details

Date: 28 June 2024
Orbit: 992 x 1023 km, 97.4° (Epoch: 14 July)

Event Time Altitude Azimuth Distance (km) Brightness Sun altitude
Exits shadow 19:28:25 21° 142° (SE) 2,074 5.9 -14.8°
Maximum altitude 19:32:30 54° 73° (ENE) 1,190 5.1 -15.4°
Drops below altitude 10° 19:38:32 10° 358° (N) 2,764 7.9 -16.2°
Sets 19:41:03 0° 354° (N) 3,716 8.8 -16.5°
